Dewpoint
47 48 48 48 49 50 50 49 49 50 49 49 49 50 50 51 52 53 53 54 55 55 53 53 52 53 38 27 25 31 43 45 43 35 28 29 33 37 39 40 36 36 38 41 42 42 42
47 47 48 48 48 48 48 48 48 49 49 49 49 49 49 50 50 51 52 53 54 53 52 51 51 52 35 23 26 29 34 39 31 30 29 30 37 40 40 37 37 40 39 41 41 41 42
45 46 47 47 48 48 48 48 47 47 48 48 48 48 48 49 49 50 50 52 52 51 49 48 50 39 32 25 26 31 36 33 31 30 27 29 34 40 38 36 39 39 39 40 40 41 41
44 45 46 46 46 46 47 46 47 46 46 46 47 47 47 48 48 49 49 51 50 49 47 43 49 32 28 26 27 31 35 35 40 37 39 43 42 40 39 41 39 37 36 34 38 40 40
44 44 44 45 45 46 45 46 46 45 45 45 46 46 46 46 47 47 48 50 49 48 45 41 35 33 24 32 25 30 39 39 41 42 42 42 40 37 40 38 35 34 30 30 36 38 37
45 45 44 44 44 45 45 44 45 45 45 45 45 45 45 45 45 45 47 49 47 47 38 25 16 21 23 20 27 37 38 40 39 39 38 38 36 34 35 33 29 28 30 27 33 36 34
44 45 45 44 44 44 44 44 45 46 45 45 45 45 45 44 44 44 49 45 34 31 26 12 19 8 14 21 28 33 38 39 39 37 33 34 30 29 29 30 30 28 29 22 23 32 32
43 43 44 44 44 44 44 44 45 45 45 44 45 45 44 44 43 44 49 36 36 39 33 23 20 18 18 19 25 33 31 36 37 33 30 28 28 26 26 25 26 27 18 18 23 30 30
40 42 43 43 44 44 44 44 44 45 45 45 45 44 44 43 42 51 42 38 40 42 37 27 17 9 6 15 20 24 31 35 32 30 28 27 25 32 29 27 23 18 18 16 18 26 25
42 41 41 42 43 43 44 44 44 44 45 45 45 45 44 42 46 56 46 45 43 49 36 25 17 9 8 14 18 23 28 31 30 27 26 24 26 30 28 22 20 17 19 16 18 18 14
42 42 42 42 42 42 43 44 44 44 44 45 45 45 44 42 45 52 50 54 43 50 31 25 18 10 7 9 13 20 22 30 27 26 24 25 23 22 26 22 24 22 18 17 16 16 16
41 41 42 42 42 42 43 43 44 44 44 45 45 45 44 38 44 53 55 57 46 38 26 19 11 8 5 4 8 15 19 27 26 22 26 25 21 23 26 25 26 25 20 17 16 17 15
40 39 39 40 41 42 42 42 43 44 44 45 45 43 41 37 42 49 55 51 34 32 26 14 10 8 6 8 6 8 17 20 19 21 23 22 21 21 22 26 23 23 21 20 18 17 15
40 40 38 37 39 40 41 42 43 43 44 45 45 41 42 39 41 49 54 45 34 33 22 13 10 8 7 7 6 5 8 14 19 19 17 18 18 18 19 23 23 21 21 24 20 18 20
40 39 39 38 38 39 41 42 42 42 44 45 42 37 39 44 49 51 51 40 35 31 20 17 9 8 8 8 9 7 7 8 13 17 18 17 17 18 18 20 20 19 19 22 21 23 22
39 41 39 39 38 39 40 41 42 42 43 44 35 36 34 48 53 54 47 40 35 31 28 13 12 10 10 9 9 11 9 10 10 15 20 19 17 18 18 19 20 22 25 22 25 17 17
41 40 39 38 37 39 39 39 40 42 43 44 39 32 49 49 53 48 40 39 37 33 24 17 14 13 12 11 10 9 11 11 10 12 20 19 22 20 18 19 20 22 22 23 28 25 21
42 42 41 40 38 38 38 38 39 41 44 41 34 25 49 50 38 37 35 33 36 34 33 22 21 19 14 13 12 11 12 11 11 11 18 21 20 20 20 20 19 21 21 21 28 22 24
43 42 42 41 38 38 38 38 38 41 43 36 30 26 48 45 30 29 28 27 31 32 34 32 25 23 21 18 14 14 13 20 13 12 20 19 21 22 18 19 19 16 19 32 32 26 24
43 43 42 42 39 39 38 38 38 39 42 38 30 31 35 40 34 31 25 25 25 29 30 32 31 28 23 20 21 18 15 23 20 16 24 26 20 19 21 20 26 20 15 34 28 26 26
43 43 42 42 41 40 38 38 38 38 42 38 30 31 31 34 35 32 32 28 25 25 28 33 34 29 23 21 22 19 20 26 24 24 23 22 21 21 21 19 18 17 18 23 29 24 18
44 44 43 43 42 41 39 39 38 37 41 34 34 27 34 31 32 31 30 28 30 31 25 26 36 35 30 25 26 27 27 20 22 23 22 22 23 23 22 19 13 9 6 16 25 23 19
44 44 44 43 43 42 41 39 38 38 40 30 28 29 29 29 27 26 26 25 26 28 32 32 29 33 34 32 31 32 32 31 27 23 24 23 25 23 22 20 14 17 17 17 19 20 21
44 44 44 44 43 43 42 41 39 38 39 32 35 35 32 27 23 21 20 25 28 23 29 32 38 36 33 36 33 29 28 26 25 24 27 23 24 28 25 22 22 24 23 23 21 21 23
44 43 43 44 43 43 42 41 41 40 39 33 33 37 33 28 24 24 24 31 31 33 30 29 35 43 42 37 32 31 30 25 27 22 24 26 26 31 27 23 23 21 21 21 21 21 23
44 44 44 44 43 43 42 42 41 41 39 34 29 34 38 31 24 23 23 28 29 32 32 32 44 44 39 34 35 30 30 26 23 20 22 23 27 29 28 23 19 20 22 23 22 20 24
44 43 43 43 43 43 43 42 42 41 39 35 27 34 37 33 29 27 30 33 37 36 36 38 41 41 39 37 34 30 29 28 20 19 23 22 25 30 30 26 23 21 19 18 17 23 22
43 43 43 43 43 42 43 42 42 41 40 37 27 31 37 33 30 30 31 29 33 35 34 37 39 41 39 35 35 34 30 30 29 25 23 24 24 29 29 28 26 25 19 18 28 27 25
42 42 42 42 43 42 42 42 42 41 41 39 29 27 32 36 36 37 36 34 32 32 34 37 35 35 40 38 37 35 33 31 28 28 26 24 25 29 29 31 30 28 26 26 30 26 26
Wind_Speed
10 11 11 12 13 14 15 17 19 20 21 23 24 25 25 26 26 28 28 28 28 26 24 20 16 14 7 8 13 13 13 8 10 8 15 19 15 14 6 15 2 2 5 6 6 9 13
10 10 11 12 13 14 15 16 18 19 22 23 25 25 26 27 27 29 31 31 29 26 24 18 11 9 5 15 3 7 6 10 11 13 15 21 14 8 5 8 10 3 5 7 7 8 7
9 10 10 12 13 14 15 16 17 18 20 23 25 27 27 28 29 30 32 34 31 27 21 15 7 4 9 20 5 9 5 10 13 17 18 20 15 6 2 5 3 5 8 8 8 9 6
7 9 9 11 12 14 15 16 17 19 20 22 25 27 28 29 30 32 35 36 34 29 18 12 4 4 7 1 8 9 10 11 10 13 16 11 7 9 2 4 3 9 9 12 13 13 10
6 7 9 10 11 13 15 16 17 19 21 22 22 26 28 29 31 34 36 39 35 21 12 11 5 6 13 3 7 5 7 6 4 3 6 2 4 7 4 10 12 14 16 14 11 14 8
6 6 8 9 11 13 14 16 18 19 20 22 23 25 28 30 31 35 37 40 27 16 10 10 11 5 11 6 6 2 3 5 6 6 4 7 6 9 12 15 16 7 16 18 16 18 16
5 6 7 9 10 12 14 15 17 19 21 23 25 26 28 30 32 35 25 12 4 4 6 9 4 13 4 4 2 7 5 5 7 10 11 14 11 15 16 18 21 24 16 19 7 19 16
4 6 8 9 10 11 13 15 17 18 21 23 24 27 29 30 32 32 20 6 7 3 9 13 12 10 9 6 7 13 6 9 11 14 15 7 13 16 18 15 10 12 18 13 9 13 9
4 5 6 9 10 11 13 15 16 18 20 22 24 27 30 32 35 14 5 10 8 7 7 8 15 14 12 10 11 15 11 14 13 16 18 11 17 7 6 4 8 12 11 11 13 11 5
5 6 6 7 9 11 12 14 15 17 19 21 25 28 30 37 8 9 1 11 10 4 5 11 10 10 10 8 11 5 10 7 12 13 16 13 4 3 3 8 6 12 16 11 13 3 11
3 4 5 6 7 9 12 14 16 17 18 20 23 27 29 28 11 5 8 12 9 4 5 4 13 3 12 14 5 14 8 9 11 13 7 7 5 7 10 11 1 5 9 9 10 9 14
6 3 3 5 7 9 11 14 16 18 18 19 22 25 27 8 9 10 13 14 5 2 7 5 6 10 14 19 12 10 10 11 7 16 8 12 2 6 9 4 2 5 8 6 6 9 10
9 8 6 6 7 8 11 14 15 17 19 21 23 27 20 13 4 14 14 6 4 6 6 9 8 12 19 18 22 14 14 16 13 12 14 16 10 4 1 5 3 4 8 5 6 7 9
12 9 8 8 8 9 11 13 15 17 19 22 26 32 9 11 10 13 6 4 9 7 17 3 1 11 18 20 18 20 18 18 21 18 12 17 14 16 9 11 13 10 13 5 5 7 10
12 12 10 7 7 8 10 12 14 17 19 22 30 8 8 7 5 5 2 15 10 10 5 11 6 11 15 19 10 18 21 22 21 24 21 13 11 11 9 7 6 7 12 7 6 9 7
13 11 9 8 8 8 9 11 14 17 19 20 15 10 7 4 1 3 7 15 14 17 12 10 13 13 15 17 14 11 17 18 20 18 16 13 9 10 6 2 4 5 3 4 5 3 5
14 12 11 10 9 8 8 9 13 16 21 20 6 5 5 2 4 8 16 13 21 21 3 7 12 14 15 14 19 18 10 8 8 11 11 17 11 7 6 11 13 7 6 5 1 6 4
16 15 13 11 10 9 8 9 11 15 23 13 5 6 3 4 10 11 18 15 21 22 13 11 9 11 12 11 8 15 15 5 5 4 11 14 6 13 16 4 3 3 12 17 7 6 4
18 17 14 13 11 10 8 8 9 11 14 10 5 6 3 4 9 18 16 20 23 25 22 16 14 13 11 13 7 11 10 7 7 7 2 12 7 8 12 6 3 6 11 2 1 8 14
21 19 17 15 13 11 9 8 6 9 11 8 6 4 6 7 14 14 20 21 20 24 20 26 22 17 17 13 15 6 8 5 3 6 3 3 9 13 11 3 8 5 13 5 6 9 12
23 21 20 18 16 13 11 9 5 7 9 6 4 5 7 4 12 16 17 13 22 22 20 21 13 17 14 14 17 15 11 10 5 6 3 5 6 13 14 11 9 10 11 13 12 18 12
23 22 21 20 19 17 14 10 7 4 8 4 4 5 8 14 16 13 18 20 17 18 23 27 16 19 19 16 8 6 9 14 9 12 12 11 7 8 12 14 13 12 13 14 18 16 18
23 22 22 21 20 18 16 13 9 5 3 4 7 7 5 10 12 16 15 21 19 17 18 19 21 26 21 16 7 11 11 15 16 14 14 14 8 6 8 12 10 14 16 16 17 19 19
23 22 22 23 22 20 17 14 12 9 8 11 9 11 5 11 13 15 19 8 15 24 18 16 11 11 16 6 11 12 11 12 11 10 14 13 14 7 4 3 6 13 15 8 8 11 12
24 22 22 23 21 20 19 16 14 12 9 10 12 5 4 9 14 17 14 11 11 13 18 15 6 5 20 3 2 5 6 11 10 15 12 16 14 5 5 9 12 18 12 10 8 10 7
24 22 21 20 21 21 20 17 16 14 11 9 13 8 5 6 8 13 17 11 10 13 15 11 4 4 12 6 4 9 9 8 9 7 12 16 12 11 7 6 7 7 8 4 2 12 10
25 23 21 20 21 20 20 18 17 16 13 11 11 11 5 6 14 13 7 6 7 8 9 7 4 6 7 2 5 9 11 9 15 17 11 15 15 14 14 8 8 10 13 5 6 5 12
26 23 21 20 20 20 20 19 18 17 15 12 11 13 8 6 18 17 10 10 5 3 4 8 3 3 9 8 6 5 7 12 11 22 21 17 14 10 9 8 18 8 12 6 6 12 13
25 23 21 19 19 19 19 19 18 18 17 14 13 13 10 7 8 18 18 17 17 11 9 1 4 6 3 6 9 7 5 7 14 19 18 23 12 11 14 10 6 6 5 9 9 13 13
Wind_Direction
22 24 20 20 19 19 16 10 4 359 356 353 353 350 348 344 337 332 328 325 324 322 318 316 319 326 316 229 251 152 154 160 159 189 217 249 248 247 304 279 306 250 64 78 114 148 164
28 30 25 20 19 18 14 9 6 360 355 354 349 346 345 341 337 332 328 323 319 317 317 309 316 319 261 260 354 172 201 162 210 211 229 251 250 303 154 352 328 69 152 137 165 161 147
20 17 24 21 20 15 11 7 3 1 357 353 348 345 342 340 337 331 326 321 317 316 312 304 306 298 265 251 312 299 203 222 231 218 235 240 257 317 25 300 307 170 159 177 182 164 180
14 15 20 18 14 10 8 5 2 359 357 355 348 343 340 339 335 329 323 319 315 312 299 294 277 274 259 58 317 268 196 217 246 239 262 22 0 298 252 60 220 209 208 210 176 177 161
12 11 12 11 8 7 4 2 1 0 357 354 350 342 338 337 335 328 323 315 307 299 280 281 275 209 262 123 224 246 276 200 130 82 52 58 239 248 203 221 219 229 234 220 163 186 156
8 4 6 9 5 3 2 359 356 356 354 351 348 343 338 335 333 325 324 309 290 299 244 237 255 272 251 250 123 313 225 150 188 149 177 204 218 230 223 218 228 226 262 244 197 184 214
350 4 358 359 2 0 356 357 355 352 352 350 346 343 339 335 330 324 333 327 300 205 282 247 309 238 281 101 193 229 171 234 191 207 229 199 230 238 231 225 253 279 236 267 189 157 191
347 345 341 344 352 355 354 352 351 349 347 345 344 340 337 333 326 319 314 27 41 329 305 270 242 266 271 324 223 224 165 213 204 227 231 252 242 279 257 277 272 308 282 284 77 133 184
307 322 338 340 344 350 351 348 346 344 346 341 340 338 335 330 321 304 6 16 351 336 268 262 220 232 214 207 229 214 188 222 224 234 252 243 273 360 355 327 289 266 294 299 316 128 244
284 293 318 331 335 342 347 342 341 342 342 340 337 335 335 331 310 340 35 357 357 346 274 217 209 227 188 213 228 213 189 254 235 251 248 249 17 312 286 265 263 279 354 336 313 327 271
260 275 299 316 330 340 341 337 336 339 339 338 334 333 333 325 308 2 358 343 343 270 285 215 190 63 188 198 164 199 188 202 236 229 249 255 302 255 256 244 104 13 343 319 313 305 302
229 232 284 307 322 341 341 333 331 333 336 335 329 326 334 345 292 317 340 320 304 224 240 213 179 204 217 202 198 143 181 224 235 249 259 260 331 287 257 156 113 6 309 293 287 275 274
234 245 263 287 312 328 335 326 328 331 333 330 324 315 317 297 264 332 326 286 225 214 255 207 206 209 209 207 222 199 200 200 207 210 226 239 231 207 320 234 157 228 271 289 247 222 243
230 237 255 280 298 307 317 320 328 331 331 328 322 312 284 256 293 331 311 225 223 247 235 76 242 189 215 215 209 212 218 214 214 216 232 228 238 194 202 216 228 214 229 201 257 268 342
228 244 246 267 288 298 306 316 327 331 330 330 317 309 269 248 241 248 231 216 211 238 213 233 195 229 222 219 218 216 222 228 218 211 230 254 231 91 168 210 205 251 214 257 289 303 283
225 230 235 251 268 280 298 313 323 331 328 331 326 303 260 93 292 218 213 227 220 238 283 297 224 203 222 209 188 227 217 228 238 210 219 254 259 189 165 189 243 254 10 195 188 204 236
212 219 227 238 251 264 292 316 326 333 326 321 287 266 102 138 210 210 225 222 230 248 297 273 254 258 250 219 201 219 219 201 247 221 188 231 256 161 140 210 206 182 215 215 219 201 227
212 214 218 227 236 252 281 310 328 338 333 293 285 239 118 189 204 217 231 227 241 250 254 246 291 291 261 259 225 225 211 207 172 240 201 232 244 228 222 104 273 293 224 214 181 240 207
209 209 211 216 228 242 268 294 324 343 353 321 256 266 131 195 233 234 237 234 246 234 251 250 241 259 267 271 263 250 221 77 137 192 178 211 224 230 182 167 204 235 233 90 261 224 240
208 208 209 215 222 232 248 275 311 337 344 317 286 332 294 208 262 277 236 233 227 238 246 258 269 255 247 238 256 263 211 125 159 201 54 348 214 222 221 86 134 197 212 150 177 224 225
209 208 207 210 217 223 235 254 283 323 334 308 259 246 290 246 247 247 254 249 239 224 213 252 259 239 230 235 235 238 255 122 173 180 208 207 233 266 236 261 201 199 192 191 206 224 220
208 209 209 210 210 213 222 234 257 296 320 263 307 309 347 285 297 230 233 247 254 268 229 221 233 243 246 250 283 297 337 242 197 179 206 202 231 247 228 259 245 252 244 204 206 233 244
207 208 209 208 208 208 211 215 234 246 270 268 267 276 255 282 267 259 238 227 242 258 275 279 248 228 250 260 358 318 292 293 274 197 200 201 210 223 242 249 239 248 240 246 250 236 226
202 204 206 208 206 205 206 204 209 224 231 292 296 324 287 266 271 261 245 257 236 236 258 265 342 296 248 100 319 303 273 272 281 238 180 206 204 185 243 216 240 244 254 249 280 288 281
199 200 203 203 203 202 203 203 203 213 230 259 276 291 282 272 273 291 290 308 295 285 262 263 253 300 322 126 246 301 293 268 258 238 214 217 208 152 183 226 256 281 244 203 217 258 220
196 198 200 201 203 203 202 204 203 207 218 248 260 270 274 284 258 293 283 294 290 287 265 263 73 81 333 180 148 179 199 212 210 211 218 218 233 185 178 225 234 269 91 106 192 255 202
194 195 197 196 198 199 200 203 202 205 213 231 257 248 252 273 271 282 322 349 357 327 302 322 156 172 143 341 165 192 213 224 221 204 180 211 204 227 196 225 259 274 135 149 228 190 133
191 193 196 197 196 198 198 200 202 205 210 217 250 255 223 260 276 289 296 273 266 305 302 343 338 248 160 167 196 226 230 223 246 259 191 195 192 200 212 225 244 255 135 198 108 121 140
186 188 192 196 196 196 196 199 201 202 209 210 250 252 231 232 273 304 288 285 282 270 274 316 294 292 231 184 208 231 268 223 216 261 238 206 204 184 188 208 213 229 111 153 158 142 139